Flag for Belgium Weather past 2 weeks in Mechelen, Belgium

Now
52 °F

Scattered clouds.


Feels Like: 46 °F
Forecast: 39 / 57 °F
Wind: 17 mph from West

Location: Brussels National Airport

Current Time: Apr 28, 2015 at 1:36:11 PM

Latest Report: Apr 28, 2015 at 12:50 PM


Visibility: N/A

Pressure: 30.04 "Hg

Humidity: 44%

Dew point: 30 °F

Location of MechelenLocation

Historic Weather in Mechelen — Graph

°F

Mechelen temperature yesterday

Maximum temperature yesterday: 54 °F (at 2:50 PM)
Minimum temperature yesterday: 41 °F (at 11:20 PM)
Average temperature yesterday: 48 °F

Past Weeks' High & Low Weather Summary

 TemperatureHumidityPressure
High75 °F (Apr 15, 3:50 PM)100% (Apr 19, 6:50 AM)30.51 "Hg (Apr 19, 6:50 AM)
Low34 °F (Apr 19, 6:20 AM)31% (Apr 15, 4:20 PM)29.68 "Hg (Apr 26, 5:20 PM)
Average52 °F69%30.10 "Hg
* Reported Apr 13 12:20 PM — Apr 28 12:20 PM, Mechelen, Weather by CustomWeather, © 2015

Note: Actual official high and low records may vary slightly from our data, if they occured in-between our weather recording intervals... More about our weather records

Advertising

Mechelen weather history for previous 24 hours

 ConditionsComfort  
Time TempWeatherWind HumidityBarometerVisibility
12:20 PM
Tue, Apr 28
48 °FSprinkles. Scattered clouds.17 mph54%30.04 "HgN/A
11:50 AM50 °FScattered clouds.17 mph47%30.04 "HgN/A
11:20 AM50 °FScattered clouds.15 mph58%30.01 "HgN/A
10:50 AM50 °FScattered clouds.14 mph58%30.01 "HgN/A
10:20 AM48 °FScattered clouds.16 mph62%30.01 "HgN/A
9:50 AM48 °FPassing clouds.13 mph62%29.98 "HgN/A
9:20 AM46 °FSunny.13 mph66%29.98 "Hg10 mi
8:50 AM43 °FSunny.13 mph76%29.95 "Hg10 mi
8:20 AM45 °FSunny.10 mph71%29.95 "Hg10 mi
7:50 AM41 °FSunny.8 mph81%29.95 "Hg10 mi
7:20 AM37 °FClear.9 mph93%29.92 "Hg10 mi
6:50 AM36 °FClear.7 mph93%29.92 "Hg10 mi
6:20 AM36 °FClear.6 mph93%29.92 "Hg10 mi
5:50 AM36 °FClear.6 mph87%29.92 "Hg10 mi
5:20 AM34 °FClear.5 mph93%29.92 "Hg10 mi
4:50 AM36 °FClear.5 mph87%29.92 "Hg10 mi
4:20 AM37 °FPassing clouds.6 mph81%29.92 "HgN/A
3:50 AM37 °FPassing clouds.6 mph81%29.92 "HgN/A
3:20 AM37 °FPassing clouds.2 mph75%29.89 "HgN/A
2:50 AM39 °FPassing clouds.5 mph70%29.89 "HgN/A
2:20 AM37 °FClear.1 mph75%29.89 "Hg10 mi
1:50 AM39 °FClear.1 mph65%29.89 "Hg10 mi
1:20 AM39 °FClear.3 mph70%29.89 "Hg10 mi
12:50 AM41 °FClear.5 mph66%29.89 "Hg10 mi
12:20 AM41 °FClear.3 mph61%29.89 "Hg10 mi
11:50 PM
Mon, Apr 27
41 °FClear.5 mph66%29.89 "Hg10 mi
11:20 PM41 °FClear.5 mph76%29.86 "Hg10 mi
10:50 PM43 °FClear.6 mph71%29.86 "Hg10 mi
10:20 PM45 °FClear.6 mph71%29.86 "Hg10 mi
9:50 PM46 °FSunny.8 mph62%29.86 "Hg10 mi
9:20 PM48 °FSunny.8 mph58%29.83 "Hg10 mi
8:50 PM48 °FSunny.7 mph58%29.83 "Hg10 mi
8:20 PM50 °FSunny.7 mph54%29.83 "Hg10 mi
7:50 PM50 °FSunny.8 mph58%29.80 "Hg10 mi
7:20 PM52 °FPassing clouds.8 mph54%29.80 "HgN/A
6:50 PM52 °FSunny.9 mph54%29.80 "Hg10 mi
6:20 PM54 °FSunny.9 mph51%29.80 "Hg10 mi
5:50 PM52 °FSunny.13 mph50%29.80 "Hg10 mi
5:20 PM54 °FSunny.13 mph44%29.80 "Hg10 mi
4:50 PM54 °FSunny.14 mph47%29.77 "Hg10 mi
4:20 PM54 °FPassing clouds.10 mph51%29.80 "HgN/A
3:50 PM54 °FPassing clouds.9 mph54%29.80 "HgN/A
3:20 PM52 °FPassing clouds.12 mph54%29.80 "HgN/A
2:50 PM54 °FPassing clouds.9 mph47%29.80 "HgN/A
2:20 PM52 °FScattered clouds.13 mph54%29.80 "HgN/A
1:50 PM52 °FScattered clouds.13 mph58%29.80 "HgN/A
1:20 PM52 °FScattered clouds.15 mph50%29.80 "HgN/A
Weather by CustomWeather, © 2015

See weather overviewHow to use our weather pages